Weather Roundup
Issued by NWS

Home | Current Version | Previous Version | Text Only | Print | Product List | Glossary On
Versions: 1 2 3 4 5 6 7 8 9 10 11 12 13 14 15 16 17 18 19 20 21 22 23 24 25 26 27 28 29 30 31 32 33 34 35 36 37 38 39 40 41 42 43 44 45 46 47 48 49 50
000
NZUS93 KARX 281159
HRRWXR

CURRENT HOURLY OBSERVATIONS ACROSS
MUCH OF THE UPPER MISSISSIPPI VALLEY
NATIONAL WEATHER SERVICE LA CROSSE WI
700 AM CDT WED SEP 28 2016


...SOUTHEAST MINNESOTA...


CITY           SKY/WX    TMP DP  RH WIND       PRES   REMARKS
ROCHESTER      CLOUDY    50  47  89 N14       29.99R
ROCHESTER/MAYO CLOUDY    49  49  97 NW10G17   30.00R
WINONA         CLOUDY    52  48  87 NW10      29.96R
AUSTIN         CLOUDY    48  45  87 NW9       30.00R
ALBERT LEA     CLOUDY    50  46  87 NW9       30.02R
DODGE CENTER   CLOUDY    48  46  93 NW13      30.01R
PRESTON        CLOUDY    48  45  88 N15G21    29.98R
OWATONNA       CLOUDY    50  45  81 NW10      30.03R
FARIBAULT      CLOUDY    52  46  82 NW7       30.04R
$$

...ELSEWHERE IN MINNESOTA...


CITY           SKY/WX    TMP DP  RH WIND       PRES   REMARKS
MINNEAPOLIS    CLOUDY    51  47  86 N8        30.05R
INTNL FALLS    CLOUDY    51  48  89 NE7       30.16R
DULUTH         PTCLDY    49  47  93 N9        30.07R
RED WING       CLOUDY    54  48  82 N6        30.00R
REDWOOD FALLS  CLOUDY    47  45  93 NW5       30.11R
MANKATO        CLOUDY    50  46  86 NW13      30.06R
WORTHINGTON    CLOUDY    44  42  93 N16G22    30.10R
FAIRMONT       CLOUDY    48  45  89 N9        30.07R
$$

...SOUTHWEST WISCONSIN...


CITY           SKY/WX    TMP DP  RH WIND       PRES   REMARKS
LA CROSSE      CLOUDY    53  50  89 N13       29.93R
PRAIRIE DU CHI CLOUDY    50  46  87 NW8       29.92R
BOSCOBEL       LGT RAIN  51  48  89 NW7       29.92R
LONE ROCK      NOT AVBL
PLATTEVILLE    CLOUDY    49  49  97 N9        29.90R
FORT MC COY    LGT RAIN  49  49 100 NW6       29.92R
MAUSTON-NEW LI CLOUDY    50  49  98 NW7       29.88R FOG
VIROQUA        CLOUDY    48  48 100 NW7       29.91R
WIS DELLS      DRIZZLE   48  47  95 NW5       29.87R
$$

...ELSEWHERE IN WISCONSIN...


CITY           SKY/WX    TMP DP  RH WIND       PRES   REMARKS
MILWAUKEE      CLOUDY    52  49  89 NW7       29.84R
MADISON        CLOUDY    49  48  97 NW8       29.87R
GREEN BAY      PTCLDY    49  49 100 N6        29.87R
EAU CLAIRE     NOT AVBL
BLACK RVR FLS  CLOUDY    51  51 100 NW3       29.92R
MEDFORD        CLOUDY    49  49 100 N6        29.91R
WAUSAU         CLOUDY    51  48  89 N5        29.89R
WIS RAPIDS     CLOUDY    51  50  96 N7        29.91R
MARSHFIELD     CLOUDY    52  48  86 N8        29.90R
RICE LAKE      NOT AVBL
$$

...NORTHEAST IOWA...


CITY           SKY/WX    TMP DP  RH WIND       PRES   REMARKS
WATERLOO       CLOUDY    51  44  77 N16       29.96R
DUBUQUE        CLOUDY    49  45  86 N14       29.91R
DECORAH        CLOUDY    50  48  93 NW8G17    29.94R
MASON CITY     CLOUDY    50  45  83 NW15      30.03R
CHARLES CITY   CLOUDY    50  46  87 N13G18    29.99R
OELWEIN        CLOUDY    50  46  87 N12       29.96R
$$

...ELSEWHERE IN IOWA...


CITY           SKY/WX    TMP DP  RH WIND       PRES   REMARKS
DES MOINES     MOCLDY    52  44  74 N7        29.99R
IOWA CITY      CLOUDY    52  43  71 N12G23    29.94R
FORT DODGE     CLOUDY    48  39  71 N10G18    30.04R
MARSHALLTOWN   CLOUDY    51  44  77 N14       29.98R
CEDAR RAPIDS   CLOUDY    50  45  83 N14       29.93R
$$

...NORTHERN ILLINOIS...


CITY           SKY/WX    TMP DP  RH WIND       PRES   REMARKS
CHICAGO-OHARE  CLOUDY    51  46  83 N9        29.82R
CHICAGO-MIDWAY CLOUDY    53  47  79 N13       29.81R
MOLINE         MOCLDY    51  43  74 N8G18     29.89R
ROCKFORD       CLOUDY    50  47  89 N10       29.87R
PEORIA         CLOUDY    52  45  77 N12       29.85R
$$

NOTE: "FAIR" INDICATES FEW OR NO CLOUDS BELOW 12,000 FEET WITH NO
SIGNIFICANT WEATHER AND/OR OBSTRUCTIONS TO VISIBILITY. WIND
SPEEDS ARE IN MILES-PER-HOUR.




USA.gov is the U.S. government's official web portal to all federal, state and local government web resources and services.